When you browse on this site, cookies collect data to enhance your experience and personalize the content and advertising you see.
Visit our Privacy Policy to learn more. By continuing to use the site, you agree to this use of cookies and data.
  • In Hungary
  • List of Countries
  • For 7 days
  • Water Temperature
  • Weather Map
  • News
  • Weather Widgets
  • user-avatar
    Login

    Hourly Weather Botnevo

    Today, 22 January, Wednesday

    Time Temperature Precipitation Wind Pressure Humidity
    00:00 -2°C° 0 mm 5 mps 733 mmHg 78%
    01:00 -2°C° 0 mm 5 mps 733 mmHg 78%
    02:00 -2°C° 0 mm 4 mps 733 mmHg 82%
    03:00 -3°C° 0 mm 4 mps 732 mmHg 82%
    04:00 -3°C° 0 mm 4 mps 731 mmHg 82%
    05:00 -3°C° 0 mm 4 mps 730 mmHg 83%
    06:00 -3°C° 0 mm 4 mps 730 mmHg 85%
    07:00 -3°C° 0 mm 4 mps 730 mmHg 88%
    08:00 -3°C° 0 mm 4 mps 729 mmHg 91%
    09:00 -2°C° 0.2 mm 4 mps 729 mmHg 90%
    10:00 -2°C° 0.2 mm 4 mps 728 mmHg 89%
    11:00 -2°C° 0.2 mm 4 mps 728 mmHg 87%
    12:00 -2°C° 0.6 mm 4 mps 728 mmHg 85%
    13:00 -2°C° 0.6 mm 4 mps 728 mmHg 82%
    14:00 -2°C° 0.6 mm 5 mps 728 mmHg 79%
    15:00 -3°C° 0 mm 4 mps 728 mmHg 80%
    16:00 -4°C° 0 mm 4 mps 728 mmHg 81%
    17:00 -5°C° 0 mm 4 mps 729 mmHg 82%
    18:00 -5°C° 0 mm 4 mps 729 mmHg 82%
    19:00 -5°C° 0 mm 4 mps 730 mmHg 82%
    20:00 -5°C° 0 mm 4 mps 731 mmHg 81%
    21:00 -6°C° 0 mm 5 mps 731 mmHg 82%
    22:00 -6°C° 0 mm 5 mps 731 mmHg 83%
    23:00 -6°C° 0 mm 5 mps 731 mmHg 83%

    Tomorrow, 23 January, Thursday

    Time Temperature Precipitation Wind Pressure Humidity
    00:00 -7°C° 0 mm 5 mps 732 mmHg 81%
    01:00 -7°C° 0 mm 5 mps 733 mmHg 79%
    02:00 -7°C° 0 mm 5 mps 734 mmHg 77%
    03:00 -8°C° 0.1 mm 5 mps 734 mmHg 79%
    04:00 -8°C° 0.1 mm 5 mps 734 mmHg 81%
    05:00 -8°C° 0.1 mm 5 mps 735 mmHg 83%
    06:00 -8°C° 0.1 mm 5 mps 735 mmHg 81%
    07:00 -10°C° 0.1 mm 5 mps 736 mmHg 78%
    08:00 -10°C° 0.1 mm 5 mps 737 mmHg 76%
    09:00 -8°C° 0 mm 5 mps 737 mmHg 72%
    10:00 -8°C° 0 mm 5 mps 738 mmHg 68%
    11:00 -7°C° 0 mm 5 mps 738 mmHg 64%
    12:00 -7°C° 0 mm 5 mps 738 mmHg 65%
    13:00 -8°C° 0 mm 6 mps 738 mmHg 66%
    14:00 -6°C° 0 mm 6 mps 738 mmHg 68%
    15:00 -6°C° 0 mm 5 mps 739 mmHg 70%
    16:00 -7°C° 0 mm 5 mps 739 mmHg 71%
    17:00 -7°C° 0 mm 5 mps 739 mmHg 73%
    18:00 -7°C° 0 mm 4 mps 739 mmHg 75%
    19:00 -7°C° 0 mm 3 mps 740 mmHg 77%
    20:00 -6°C° 0 mm 2 mps 740 mmHg 78%
    21:00 -6°C° 0 mm 2 mps 740 mmHg 81%
    22:00 -6°C° 0 mm 2 mps 740 mmHg 83%
    23:00 -6°C° 0 mm 2 mps 740 mmHg 85%

    Day after tomorrow, 24 January, Friday

    Time Temperature Precipitation Wind Pressure Humidity
    00:00 -5°C° 0 mm 2 mps 740 mmHg 86%
    01:00 -6°C° 0 mm 3 mps 740 mmHg 87%
    02:00 -5°C° 0 mm 3 mps 739 mmHg 88%
    03:00 -5°C° 0 mm 3 mps 738 mmHg 88%
    04:00 -5°C° 0 mm 4 mps 738 mmHg 89%
    05:00 -4°C° 0 mm 4 mps 737 mmHg 89%
    06:00 -4°C° 0.1 mm 4 mps 736 mmHg 89%
    07:00 -5°C° 0.1 mm 5 mps 736 mmHg 90%
    08:00 -4°C° 0.1 mm 5 mps 735 mmHg 90%
    09:00 -4°C° 0.3 mm 5 mps 734 mmHg 92%
    10:00 -2°C° 0.3 mm 5 mps 734 mmHg 94%
    11:00 -1°C° 0.3 mm 5 mps 733 mmHg 95%
    12:00 -1°C° 0.1 mm 5 mps 733 mmHg 96%
    13:00 0°C° 0.1 mm 5 mps 732 mmHg 96%
    14:00 0°C° 0.1 mm 5 mps 732 mmHg 97%
    15:00 0°C° 0.1 mm 5 mps 731 mmHg 95%
    16:00 +1°C° 0.1 mm 5 mps 731 mmHg 93%
    17:00 +1°C° 0.1 mm 5 mps 731 mmHg 91%
    18:00 +1°C° 0.1 mm 4 mps 731 mmHg 93%
    19:00 +1°C° 0.1 mm 4 mps 731 mmHg 94%
    20:00 +1°C° 0.1 mm 4 mps 731 mmHg 95%
    21:00 +1°C° 0.2 mm 4 mps 731 mmHg 95%
    22:00 0°C° 0.2 mm 4 mps 731 mmHg 94%
    23:00 0°C° 0.2 mm 4 mps 731 mmHg 93%

    25 January, Saturday

    Time Temperature Precipitation Wind Pressure Humidity
    00:00 0°C° 0.2 mm 4 mps 731 mmHg 94%
    01:00 -1°C° 0.2 mm 4 mps 731 mmHg 94%
    02:00 0°C° 0.2 mm 3 mps 731 mmHg 94%
    03:00 -1°C° 0 mm 4 mps 730 mmHg 92%
    04:00 -1°C° 0 mm 4 mps 730 mmHg 89%
    05:00 -1°C° 0 mm 4 mps 730 mmHg 87%
    06:00 -2°C° 0 mm 4 mps 730 mmHg 88%
    07:00 -3°C° 0 mm 4 mps 730 mmHg 89%
    08:00 -3°C° 0 mm 4 mps 730 mmHg 90%
    09:00 -3°C° 0 mm 4 mps 730 mmHg 88%
    10:00 -2°C° 0 mm 5 mps 730 mmHg 86%
    11:00 -1°C° 0 mm 5 mps 730 mmHg 84%
    12:00 -1°C° 0 mm 5 mps 729 mmHg 81%
    13:00 -1°C° 0 mm 5 mps 729 mmHg 77%
    14:00 -1°C° 0 mm 5 mps 729 mmHg 74%
    15:00 -2°C° 0.1 mm 6 mps 729 mmHg 74%
    16:00 -3°C° 0.1 mm 6 mps 729 mmHg 73%
    17:00 -3°C° 0.1 mm 7 mps 730 mmHg 73%
    18:00 -4°C° 0 mm 6 mps 730 mmHg 73%
    19:00 -4°C° 0 mm 6 mps 731 mmHg 73%
    20:00 -4°C° 0 mm 6 mps 732 mmHg 73%
    21:00 -5°C° 0 mm 5 mps 732 mmHg 74%
    22:00 -5°C° 0 mm 5 mps 733 mmHg 75%
    23:00 -5°C° 0 mm 5 mps 734 mmHg 76%

    26 January, Sunday

    Time Temperature Precipitation Wind Pressure Humidity
    00:00 -5°C° 0 mm 5 mps 734 mmHg 76%
    01:00 -5°C° 0 mm 5 mps 735 mmHg 77%
    02:00 -6°C° 0 mm 5 mps 736 mmHg 77%
    03:00 -6°C° 0 mm 5 mps 736 mmHg 77%
    04:00 -5°C° 0 mm 4 mps 737 mmHg 78%
    05:00 -5°C° 0 mm 4 mps 738 mmHg 78%
    06:00 -5°C° 0 mm 4 mps 738 mmHg 79%
    07:00 -5°C° 0 mm 4 mps 739 mmHg 80%
    08:00 -5°C° 0 mm 4 mps 740 mmHg 82%
    09:00 -5°C° 0 mm 3 mps 741 mmHg 79%
    10:00 -4°C° 0 mm 3 mps 741 mmHg 76%
    11:00 -4°C° 0 mm 3 mps 742 mmHg 73%
    12:00 -2°C° 0 mm 3 mps 742 mmHg 73%
    13:00 -2°C° 0 mm 3 mps 742 mmHg 72%
    14:00 -2°C° 0 mm 3 mps 743 mmHg 71%
    15:00 -2°C° 0 mm 2 mps 743 mmHg 74%
    16:00 -3°C° 0 mm 2 mps 743 mmHg 76%
    17:00 -3°C° 0 mm 2 mps 743 mmHg 79%
    18:00 -3°C° 0 mm 2 mps 743 mmHg 80%
    19:00 -3°C° 0 mm 2 mps 743 mmHg 80%
    20:00 -3°C° 0 mm 2 mps 743 mmHg 81%
    21:00 -3°C° 0 mm 2 mps 743 mmHg 85%
    22:00 -2°C° 0 mm 2 mps 743 mmHg 89%
    23:00 -2°C° 0 mm 2 mps 743 mmHg 93%

    27 January, Monday

    Time Temperature Precipitation Wind Pressure Humidity
    00:00 -2°C° 0.1 mm 3 mps 743 mmHg 93%
    01:00 -2°C° 0.1 mm 3 mps 742 mmHg 92%
    02:00 -1°C° 0.1 mm 3 mps 742 mmHg 92%
    03:00 -1°C° 0 mm 3 mps 742 mmHg 93%
    04:00 -1°C° 0 mm 3 mps 742 mmHg 93%
    05:00 -1°C° 0 mm 3 mps 741 mmHg 94%
    06:00 -1°C° 0 mm 3 mps 741 mmHg 95%
    07:00 -1°C° 0 mm 3 mps 741 mmHg 95%
    08:00 -1°C° 0 mm 3 mps 741 mmHg 95%
    09:00 0°C° 0 mm 3 mps 741 mmHg 95%
    10:00 0°C° 0 mm 3 mps 741 mmHg 95%
    11:00 -1°C° 0 mm 4 mps 741 mmHg 95%
    12:00 -1°C° 0 mm 4 mps 741 mmHg 92%
    13:00 -1°C° 0 mm 4 mps 740 mmHg 90%
    14:00 0°C° 0 mm 3 mps 740 mmHg 87%
    15:00 0°C° 0 mm 3 mps 739 mmHg 89%
    16:00 -1°C° 0 mm 3 mps 739 mmHg 91%
    17:00 -1°C° 0 mm 3 mps 738 mmHg 92%
    18:00 -2°C° 0.2 mm 4 mps 738 mmHg 94%
    19:00 -2°C° 0.2 mm 4 mps 737 mmHg 95%
    20:00 -2°C° 0.2 mm 4 mps 736 mmHg 97%
    21:00 -1°C° 0.3 mm 4 mps 736 mmHg 97%
    22:00 -1°C° 0.3 mm 4 mps 735 mmHg 97%
    23:00 -1°C° 0.3 mm 4 mps 735 mmHg 97%
    Show more